{"data":{"norad_id":65649,"epoch":"2026-09-20T07:59:40.692768Z","epoch_age_seconds":123001,"freshness":"FRESH","line1":"1 65649U 25210AD  26263.33310987  .00014202  00000+0  43077-3 0  9995","line2":"2 65649  53.1605 122.1397 0001161  99.5587 260.5546 15.34391242 57542","mean_motion":15.34391242,"eccentricity":0.0001161,"inclination_deg":53.1605,"raan_deg":122.1397,"arg_perigee_deg":99.5587,"mean_anomaly_deg":260.5546,"bstar":0.00043077,"rev_number":5754,"period_min":93.84829374567,"perigee_km":461.93504637853,"apogee_km":463.52349552664,"semimajor_km":6840.8662709526,"source":"CELESTRAK","updated_at":"2026-09-21T09:00:35.678526Z"}}